Date,TemperatureHighF,TemperatureAvgF,TemperatureLowF,DewpointHighF,DewpointAvgF,DewpointLowF,HumidityHigh,HumidityAvg,HumidityLow,PressureMaxIn,PressureMinIn,WindSpeedMaxMPH,WindSpeedAvgMPH,GustSpeedMaxMPH,PrecipitationSumIn
2013-1-1,42.1,38.3,34.3,41.6,36.4,29.6,98,93,77,30.10,29.90,22,1,0,0.38
2013-1-2,41.5,35.9,33.7,40.5,33.0,28.5,97,89,81,30.12,29.93,8,1,0,0.07
2013-1-3,41.3,34.6,30.1,29.8,26.9,21.6,85,74,48,30.29,30.10,7,0,0,0.00
2013-1-4,37.3,30.2,24.7,22.8,20.9,18.2,86,69,51,30.39,30.29,9,1,0,0.00
2013-1-5,43.2,31.7,21.3,33.1,23.4,18.6,91,74,38,30.41,30.22,5,0,0,0.03
2013-1-6,39.9,36.8,33.4,36.4,32.6,26.3,96,85,66,30.23,30.08,11,1,0,0.01
2013-1-7,46.7,35.3,28.5,29.7,25.3,22.5,85,68,43,30.40,30.23,8,1,0,0.00
2013-1-8,53.8,36.4,27.2,30.2,25.8,18.4,87,68,27,30.40,30.26,5,0,0,0.00
2013-1-9,47.9,42.9,36.2,46.2,38.5,29.1,96,85,66,30.43,30.27,4,0,0,0.00
2013-1-10,61.8,52.8,44.1,49.0,46.4,42.0,96,80,60,30.43,30.16,11,0,0,0.00
2013-1-11,60.4,55.8,51.7,58.5,51.2,43.0,97,85,65,30.16,29.97,12,0,0,0.04
2013-1-12,68.1,60.0,53.9,63.2,57.9,53.0,98,93,77,30.08,29.93,4,0,9,0.04
2013-1-13,70.3,58.0,49.4,57.6,53.1,48.6,98,85,58,30.01,29.87,6,0,6,0.32
2013-1-14,59.0,46.4,36.8,57.9,45.4,35.8,97,96,95,30.25,29.93,20,2,20,1.55
2013-1-15,48.2,41.8,37.6,47.7,41.1,36.6,98,97,96,30.16,29.90,8,0,11,2.02
2013-1-16,51.4,47.4,42.2,50.9,46.8,41.4,98,98,96,30.00,29.83,14,1,14,0.89
2013-1-17,43.2,35.7,31.8,42.4,33.9,30.1,97,93,80,30.22,29.92,14,2,14,1.37
2013-1-18,36.6,28.1,21.3,32.2,26.1,19.6,96,92,77,30.50,30.28,2,0,6,0.00
2013-1-19,44.6,30.4,22.2,35.1,27.7,20.7,96,90,60,30.40,30.13,3,0,8,0.01
2013-1-20,49.1,37.9,28.8,33.9,29.1,22.3,96,72,48,30.14,30.04,11,1,12,0.00
2013-1-21,41.5,32.8,25.1,27.4,17.8,2.5,86,57,28,30.11,30.00,15,2,15,0.00
2013-1-22,27.5,22.2,16.9,4.3,-2.4,-8.8,48,34,22,30.29,30.09,13,3,13,0.00
2013-1-23,37.8,28.8,21.4,23.4,9.1,-4.8,57,43,31,30.34,30.05,13,2,13,0.00
2013-1-24,38.8,28.5,20.8,27.8,9.3,-4.5,65,45,24,30.44,30.00,15,2,15,0.00
2013-1-25,32.7,26.8,20.8,31.9,19.5,0.8,97,76,41,30.37,30.06,7,0,9,0.33
2013-1-26,35.2,30.8,25.8,31.9,28.0,23.7,97,89,80,30.36,30.13,6,0,9,0.00
2013-1-27,46.2,33.4,23.6,34.8,28.2,21.1,94,82,52,30.42,30.28,4,0,9,0.01
2013-1-28,58.0,45.3,34.7,48.2,39.3,32.6,96,81,55,30.33,30.15,8,1,9,0.06
2013-1-29,69.3,52.8,40.9,52.4,47.0,39.8,98,83,47,30.17,29.83,6,0,9,0.01
2013-1-30,64.3,54.8,40.6,57.9,51.4,36.7,97,89,68,29.83,29.38,17,2,17,2.11
2013-1-31,40.5,33.3,29.5,36.9,22.2,15.6,88,64,45,29.97,29.49,17,3,17,0.01
2013-2-1,35.9,22.2,14.3,30.1,10.5,1.1,93,61,40,30.40,29.88,16,3,16,0.00
2013-2-2,30.4,22.9,15.4,29.0,17.8,9.1,95,81,53,30.38,30.02,8,0,9,0.17
2013-2-3,33.8,30.8,27.9,31.0,27.0,18.0,96,86,66,30.11,29.91,15,2,15,0.04
2013-2-4,39.2,29.0,18.4,27.9,21.7,15.4,90,75,51,30.12,29.92,6,0,9,0.00
2013-2-5,49.9,39.3,32.4,36.5,32.3,26.4,92,76,58,29.95,29.88,10,1,10,0.00
2013-2-6,55.7,41.7,31.3,35.1,28.0,20.9,90,62,27,30.18,29.94,8,1,9,0.00
2013-2-7,55.0,44.2,34.6,40.3,30.7,23.2,82,60,41,30.15,29.88,10,1,10,0.00
2013-2-8,53.1,42.0,34.1,43.9,34.6,24.3,96,77,39,30.20,29.84,17,1,17,0.02
2013-2-9,49.8,35.4,25.0,26.5,21.0,14.8,86,59,25,30.33,30.18,10,1,10,0.00
2013-2-10,57.8,44.8,33.5,41.5,24.8,13.4,95,51,20,30.25,29.94,15,2,15,0.13
2013-2-11,54.2,49.1,42.8,50.8,42.8,24.0,96,81,44,30.04,29.89,14,2,14,0.01
2013-2-12,51.6,42.7,31.5,33.2,25.8,19.8,81,53,31,30.12,29.83,9,1,9,0.00
2013-2-13,43.9,40.5,34.9,42.2,36.7,30.3,96,87,67,29.90,29.58,11,1,14,0.23
2013-2-14,49.1,37.0,29.3,32.5,28.3,24.4,90,72,47,30.02,29.89,10,1,12,0.00
2013-2-15,54.2,37.0,29.4,38.7,32.1,27.9,96,84,46,30.06,29.92,15,1,15,0.05
2013-2-16,34.0,29.4,23.6,31.0,19.7,8.5,94,69,36,30.02,29.90,19,2,19,0.00
2013-2-17,34.9,26.1,20.6,14.3,7.1,2.6,64,45,28,30.25,30.01,15,3,15,0.00
2013-2-18,55.7,36.0,20.0,30.1,18.1,9.4,71,50,28,30.30,29.95,11,1,12,0.00
2013-2-19,48.2,39.9,32.9,38.9,26.5,9.8,96,63,27,30.07,29.84,18,3,18,0.17
2013-2-20,38.9,31.7,25.7,15.9,11.4,5.3,65,44,25,30.19,30.06,11,2,12,0.00
2013-2-21,51.7,35.2,21.1,37.0,16.0,5.1,93,51,19,30.24,30.02,9,1,12,0.21
2013-2-22,57.3,46.3,38.8,43.9,39.7,36.5,96,79,55,30.07,29.93,10,1,12,0.18
2013-2-23,57.3,47.2,42.1,45.8,42.9,40.4,96,85,60,29.95,29.77,5,0,12,0.06
2013-2-24,52.9,42.3,32.8,42.5,26.0,16.8,86,56,25,30.05,29.79,11,2,12,0.00
2013-2-25,55.4,41.3,29.3,31.0,24.7,19.5,75,53,34,30.03,29.84,11,1,12,0.00
2013-2-26,55.0,45.2,39.1,44.6,37.3,28.7,95,74,56,29.85,29.37,16,2,16,0.39
2013-2-27,43.1,38.5,35.5,34.3,31.5,29.3,91,76,60,29.76,29.57,14,3,14,0.02
2013-2-28,36.8,33.0,30.6,30.6,25.7,21.9,91,75,58,29.92,29.70,13,3,13,0.02
2013-3-1,38.5,33.9,31.0,33.4,29.4,27.6,90,84,72,29.92,29.86,7,1,12,0.00
2013-3-2,36.9,31.2,26.7,30.5,24.4,14.7,92,76,57,29.99,29.85,13,1,13,0.05
2013-3-3,30.6,26.7,22.5,20.6,15.9,11.5,87,64,54,30.06,29.97,10,2,12,0.00
2013-3-4,48.8,34.7,21.8,25.7,17.4,10.6,79,52,23,30.17,29.98,9,1,12,0.00
2013-3-5,46.2,39.3,31.3,45.4,34.6,20.8,97,84,47,29.99,29.55,16,1,16,1.56
2013-3-6,31.3,28.3,26.1,28.6,24.8,20.1,93,86,72,30.21,29.71,20,3,20,0.03
2013-3-7,34.7,31.2,28.5,26.5,24.7,22.5,88,77,66,30.32,30.19,6,1,12,0.00
2013-3-8,47.9,34.9,24.4,26.0,23.6,20.7,89,65,40,30.38,30.28,10,1,12,0.00
2013-3-9,66.6,44.0,27.5,35.1,26.5,17.5,88,56,20,30.30,30.12,7,0,12,0.00
2013-3-10,70.9,55.8,46.2,33.1,29.0,25.2,58,37,22,30.12,29.93,15,2,15,0.00
2013-3-11,59.6,54.1,49.4,50.9,43.6,30.6,97,70,39,29.94,29.70,19,2,19,0.47
2013-3-12,50.2,41.6,31.8,49.1,34.9,28.5,96,79,50,30.03,29.71,15,2,15,0.17
2013-3-13,40.8,34.5,29.0,30.6,22.8,11.5,90,64,36,30.25,29.99,15,2,12,0.00
2013-3-14,42.2,29.5,23.9,15.7,13.5,10.7,67,52,29,30.34,30.23,11,2,0,0.00
2013-3-15,59.3,43.5,27.9,44.3,27.3,16.2,85,54,38,30.20,29.83,12,1,6,0.00
2013-3-16,71.5,60.9,47.3,48.0,44.1,40.2,91,55,39,29.84,29.63,16,3,0,0.01
2013-3-17,61.0,54.4,49.4,51.4,47.9,44.6,96,79,61,29.89,29.77,12,1,0,0.09
2013-3-18,58.1,49.0,43.3,51.8,44.7,38.4,97,86,59,29.86,29.72,10,1,0,0.82
2013-3-19,53.9,45.8,36.5,48.3,25.0,3.2,97,52,16,30.05,29.73,19,3,0,0.07
2013-3-20,51.3,39.4,27.6,28.1,12.8,3.2,69,37,17,30.08,29.81,19,2,0,0.00
2013-3-21,34.7,27.4,20.5,14.9,7.7,4.3,57,43,29,30.00,29.83,12,3,0,0.00
2013-3-22,44.3,32.3,0.0,22.0,12.0,0.0,77,43,25,30.07,29.92,7,1,0,0.00
2013-3-23,53.2,42.5,33.7,35.5,27.7,19.2,72,56,44,29.99,29.76,5,0,0,0.00
2013-3-24,52.8,44.8,41.8,45.8,40.5,33.1,96,86,61,29.76,29.32,13,1,0,0.88
2013-3-25,41.8,32.0,28.8,39.7,27.9,23.2,93,85,72,29.92,29.43,16,4,0,0.16
2013-3-26,34.9,31.3,28.2,28.7,26.1,24.1,91,81,66,30.21,29.91,13,2,0,0.00
2013-3-27,42.1,33.9,29.5,28.3,22.6,18.0,90,65,41,30.28,30.19,12,2,0,0.00
2013-3-28,51.4,36.9,25.1,26.7,21.2,17.5,84,56,27,30.30,30.21,13,1,0,0.00
2013-3-29,51.1,37.7,27.0,36.5,25.9,13.3,91,65,22,30.31,30.19,13,1,0,0.00
2013-3-30,59.6,46.5,35.5,40.2,37.2,32.9,92,72,43,30.19,29.94,10,1,0,0.00
2013-3-31,57.6,49.8,45.2,53.1,47.5,38.3,97,92,73,29.95,29.77,10,1,0,0.57
2013-4-1,58.0,47.9,37.8,47.3,38.5,27.9,98,74,39,29.99,29.81,14,2,0,0.00
2013-4-2,52.8,41.4,30.0,32.2,19.7,10.0,85,47,20,30.17,29.99,11,2,0,0.00
2013-4-3,56.6,42.4,29.1,19.8,14.3,8.9,63,34,18,30.26,30.14,11,2,0,0.00
2013-4-4,44.1,39.3,35.2,36.0,25.1,9.0,95,64,25,30.19,29.93,11,1,0,0.86
2013-4-5,61.8,45.2,37.0,42.4,37.9,33.0,96,79,36,30.05,29.91,10,1,0,0.00
2013-4-6,71.5,51.8,34.4,38.5,32.4,19.8,93,56,15,30.16,30.00,9,1,0,0.00
2013-4-7,71.3,56.8,43.3,44.0,37.2,31.8,69,50,29,30.07,29.97,14,1,0,0.00
2013-4-8,78.3,60.7,46.7,49.2,44.8,40.8,82,59,32,30.04,29.93,12,1,0,0.00
2013-4-9,84.0,65.0,49.9,54.2,49.7,46.2,89,62,30,30.10,29.95,10,1,0,0.00
2013-4-10,85.1,66.7,54.8,55.5,52.2,48.2,88,63,29,30.01,29.79,6,1,18,0.00
2013-4-11,83.6,68.9,59.0,61.3,52.1,42.8,94,59,25,29.82,29.55,14,1,14,0.56
2013-4-12,63.1,56.8,45.5,58.8,48.9,34.5,97,78,42,29.87,29.46,14,2,14,0.34
2013-4-13,68.1,52.9,39.2,38.8,34.7,27.8,89,56,23,29.99,29.87,13,2,13,0.00
2013-4-14,76.3,57.2,41.3,50.9,36.4,31.2,87,50,22,30.01,29.88,13,1,13,0.02
2013-4-15,77.0,62.4,52.6,52.9,50.8,48.4,93,69,38,30.05,29.84,9,1,9,0.01
2013-4-16,82.0,65.7,51.6,55.9,52.5,49.1,94,66,35,30.15,30.02,9,0,9,0.00
2013-4-17,67.1,61.0,58.0,61.5,57.9,55.0,97,90,70,30.22,30.00,16,0,16,1.37
2013-4-18,80.3,66.8,55.0,59.9,54.4,47.5,97,69,33,30.00,29.74,20,1,20,0.00
2013-4-19,69.3,57.6,44.1,61.8,50.4,30.7,95,78,59,29.95,29.58,15,2,15,0.44
2013-4-20,59.9,46.2,35.6,32.9,27.8,21.2,73,51,25,30.26,29.95,11,2,11,0.00
2013-4-21,66.9,50.9,37.8,33.2,28.1,23.4,69,44,22,30.37,30.22,10,1,10,0.00
2013-4-22,69.6,54.9,43.5,38.9,33.2,24.7,71,47,20,30.30,30.09,12,1,12,0.00
2013-4-23,74.0,57.4,43.6,42.6,34.2,24.4,70,43,26,30.17,29.97,9,1,9,0.00
2013-4-24,72.5,56.9,46.0,58.5,47.5,41.9,93,73,43,30.11,29.88,14,2,14,0.13
2013-4-25,65.0,49.5,34.9,42.3,32.9,23.7,90,57,22,30.30,30.10,11,2,11,0.00
2013-4-26,69.9,52.6,35.9,40.0,31.0,22.0,80,49,19,30.38,30.24,8,1,0,0.00
2013-4-27,58.9,54.4,51.1,53.4,46.9,35.8,95,77,47,30.27,30.08,9,0,0,0.07
2013-4-28,56.7,52.5,48.6,55.3,50.9,47.2,97,94,85,30.10,29.88,13,1,13,0.80
2013-4-29,70.1,57.6,48.9,54.5,51.7,47.8,97,82,53,29.97,29.87,8,1,8,0.00
2013-4-30,82.6,64.3,49.1,54.7,50.9,46.3,97,67,32,30.02,29.89,8,1,8,0.00
2013-5-1,74.0,63.3,53.9,53.5,50.9,47.3,92,66,39,30.14,30.01,13,1,13,0.00
2013-5-2,76.3,63.3,54.4,53.2,50.1,47.0,83,64,40,30.15,30.07,14,2,14,0.00
2013-5-3,69.3,59.7,50.8,50.6,46.3,39.1,90,63,38,30.10,29.94,12,2,12,0.00
2013-5-4,65.5,56.9,49.2,47.9,41.2,30.0,88,56,44,29.96,29.86,16,2,16,0.04
2013-5-5,57.2,51.4,48.2,51.8,48.1,43.7,94,89,78,29.91,29.74,10,1,10,0.17
2013-5-6,72.8,57.9,51.0,56.0,49.7,41.8,96,77,36,29.82,29.67,9,1,9,0.51
2013-5-7,62.9,54.7,45.5,54.0,49.4,43.5,95,83,62,29.87,29.79,9,0,9,0.02
2013-5-8,65.5,57.6,52.6,56.9,53.6,51.2,96,87,65,29.97,29.83,9,0,9,0.01
2013-5-9,79.0,61.0,48.9,59.0,53.1,47.7,98,79,38,30.05,29.94,10,0,10,0.00
2013-5-10,76.0,62.8,52.3,60.3,56.1,50.9,95,80,53,30.00,29.84,6,0,6,0.00
2013-5-11,73.2,63.0,56.0,60.0,55.5,48.3,96,77,55,29.86,29.73,11,1,11,0.12
2013-5-12,61.6,53.8,45.2,49.2,37.3,27.0,92,57,27,30.05,29.84,11,1,11,0.00
2013-5-13,62.9,50.1,37.0,34.9,29.2,23.0,84,49,24,30.16,30.04,12,1,12,0.00
2013-5-14,76.5,57.0,36.8,53.2,40.5,32.3,85,58,29,30.18,29.94,11,1,11,0.00
2013-5-15,66.8,64.4,62.0,53.2,52.5,51.1,72,65,58,30.03,29.92,14,1,14,0.00
2013-5-16,77.6,66.9,55.1,60.0,55.3,50.9,95,68,45,29.95,29.87,7,0,7,0.07
2013-5-17,84.5,66.0,55.3,61.1,57.2,54.2,97,77,41,30.03,29.91,10,0,0,1.17
2013-5-18,71.3,63.4,59.0,67.1,61.7,57.9,97,95,81,30.01,29.92,1,0,6,0.97
2013-5-19,80.3,68.4,62.1,67.1,63.4,61.0,97,85,59,29.99,29.87,7,0,7,0.03
2013-5-20,81.6,68.2,62.0,67.1,62.9,60.7,96,85,55,30.04,29.90,7,0,7,0.06
2013-5-21,86.7,70.2,60.7,66.6,62.7,59.6,97,80,46,29.97,29.80,8,0,8,0.15
2013-5-22,86.5,66.0,58.7,66.9,61.6,57.6,97,88,47,29.89,29.76,7,0,7,1.04
2013-5-23,77.4,64.7,60.2,65.5,59.9,52.2,98,86,55,29.89,29.75,11,0,11,0.34
2013-5-24,69.1,57.3,44.5,53.7,43.7,31.0,90,64,28,30.22,29.86,11,1,11,0.00
2013-5-25,72.3,55.0,39.5,45.3,38.8,31.2,93,60,23,30.31,30.13,5,0,5,0.00
2013-5-26,75.1,61.2,50.5,53.0,46.2,37.2,93,61,33,30.22,30.10,8,0,8,0.00
2013-5-27,84.3,65.6,51.4,60.7,53.6,48.5,92,69,37,30.17,30.00,6,0,6,0.00
2013-5-28,86.5,70.3,56.9,63.3,58.5,54.4,93,70,36,30.10,29.98,5,0,5,0.00
2013-5-29,88.4,71.8,57.0,63.7,58.8,54.2,93,67,35,30.12,29.99,7,0,7,0.00
2013-5-30,90.5,72.4,58.3,66.4,58.5,52.4,93,66,31,30.15,30.00,6,0,6,0.00
2013-5-31,88.4,73.4,59.6,62.8,58.8,54.1,89,64,35,30.07,29.95,9,1,9,0.00
2013-6-1,90.1,74.8,61.0,64.4,60.4,57.3,91,63,38,29.97,29.84,10,1,10,0.00
2013-6-2,73.5,67.0,65.0,67.1,64.5,59.7,96,92,62,29.89,29.79,10,0,10,0.55
2013-6-3,81.6,69.9,62.6,64.4,61.4,55.4,96,77,41,29.91,29.78,7,0,7,0.00
2013-6-4,85.3,68.9,56.6,62.6,57.6,54.1,95,71,38,29.97,29.89,5,0,5,0.00
2013-6-5,88.2,70.1,60.5,66.9,61.9,57.4,96,78,42,29.97,29.81,6,0,6,0.58
2013-6-6,81.1,70.0,62.7,67.8,64.4,61.5,97,84,58,29.87,29.66,6,0,6,0.00
2013-6-7,79.0,69.8,64.5,68.2,64.2,59.8,94,83,55,29.75,29.59,6,0,6,0.11
2013-6-8,81.8,68.2,59.5,66.3,61.7,58.4,97,82,48,30.00,29.75,6,0,6,0.20
2013-6-9,86.1,68.5,59.5,69.0,62.9,58.1,96,84,49,30.05,29.90,6,0,6,0.46
2013-6-10,78.1,69.5,65.2,68.7,64.4,60.3,97,85,55,29.90,29.78,12,1,12,0.57
2013-6-11,83.6,69.7,62.0,66.2,61.9,59.1,96,79,45,29.95,29.83,6,1,6,0.01
2013-6-12,92.9,73.4,63.2,72.6,66.1,61.2,96,80,48,29.95,29.77,7,0,13,0.00
2013-6-13,82.0,73.0,64.7,71.6,67.6,58.4,95,83,67,29.78,29.61,13,1,13,0.37
2013-6-14,79.8,66.0,56.7,59.4,55.8,50.2,95,73,39,30.00,29.77,6,0,13,0.00
2013-6-15,84.1,67.3,54.4,62.2,56.4,52.3,95,72,39,30.08,29.96,6,0,13,0.00
2013-6-16,85.3,71.1,60.2,65.8,61.8,57.8,94,75,49,30.03,29.91,11,0,13,0.00
2013-6-17,82.2,71.5,64.5,69.6,66.4,63.0,97,85,62,29.94,29.83,7,0,13,0.12
2013-6-18,69.1,66.5,61.8,67.4,64.5,60.7,96,93,81,29.89,29.75,8,0,13,1.65
2013-6-19,83.6,68.4,58.1,67.9,62.1,57.0,98,83,47,30.02,29.88,6,0,13,0.05
2013-6-20,88.6,71.1,60.4,65.5,62.5,58.1,97,78,39,30.12,30.00,7,0,13,0.00
2013-6-21,88.8,73.2,62.0,68.1,63.0,60.3,95,73,41,30.16,30.04,9,0,13,0.00
2013-6-22,88.6,71.4,61.0,63.6,59.4,52.5,96,71,31,30.16,30.01,3,0,7,0.00
2013-6-23,89.3,73.0,60.4,66.3,61.0,56.9,95,69,36,30.15,30.02,7,0,2,0.00
2013-6-24,86.7,70.4,62.9,69.5,63.9,60.4,94,81,55,30.13,30.03,6,0,0,0.00
2013-6-25,84.7,71.3,65.5,72.1,66.3,63.7,95,85,56,30.06,29.92,9,0,9,0.07
2013-6-26,83.0,70.1,64.5,72.0,67.4,63.0,96,91,63,29.94,29.80,10,0,10,0.05
2013-6-27,82.0,69.8,63.5,72.6,67.0,62.3,97,91,69,29.82,29.67,7,0,11,1.16
2013-6-28,81.1,72.6,67.3,71.5,66.9,61.6,96,83,65,29.72,29.55,6,0,10,0.00
2013-6-29,84.5,71.4,62.1,65.9,62.5,57.8,96,76,44,29.63,29.54,9,0,9,0.00
2013-6-30,87.2,70.5,59.0,65.3,60.9,57.2,96,76,38,29.71,29.59,6,0,6,0.10
2013-7-1,84.9,70.6,64.7,68.3,64.9,61.8,96,84,50,29.84,29.67,10,0,10,0.34
2013-7-2,88.0,70.6,62.7,70.5,64.9,61.5,97,84,47,30.00,29.80,9,0,9,0.01
2013-7-3,72.5,67.2,62.7,70.4,65.3,61.8,97,94,83,30.13,29.95,6,0,6,0.71
2013-7-4,80.9,68.1,62.4,73.9,66.4,61.5,98,95,69,30.14,30.02,7,0,7,0.48
2013-7-5,85.9,72.3,65.0,70.6,67.2,64.4,98,86,52,30.10,30.02,5,0,5,0.06
2013-7-6,87.8,72.6,66.3,73.0,66.8,64.5,98,84,49,30.08,29.95,8,0,8,0.12
2013-7-7,73.0,68.3,64.5,70.0,66.7,63.1,98,95,81,30.08,29.97,6,0,6,0.10
2013-7-8,89.7,71.6,62.0,68.8,64.8,58.5,98,82,39,30.13,30.02,4,0,4,0.01
2013-7-9,90.5,74.0,63.1,71.7,66.3,61.9,98,80,45,30.08,29.95,6,0,6,0.00
2013-7-10,83.4,72.8,67.8,75.9,69.6,66.4,97,90,70,29.98,29.83,7,0,7,0.11
2013-7-11,84.5,71.8,67.3,70.8,67.9,65.3,98,89,56,29.89,29.77,3,0,7,0.00
2013-7-12,84.0,71.6,63.5,66.3,63.1,57.9,97,77,44,29.90,29.80,6,0,6,0.01
2013-7-13,85.1,72.4,63.5,65.7,62.6,60.5,92,73,47,30.01,29.88,9,1,9,0.00
2013-7-14,84.0,73.7,68.3,72.7,67.1,64.1,97,81,57,30.16,29.98,10,1,10,0.12
2013-7-15,91.6,75.1,64.8,70.0,65.9,62.8,96,76,42,30.23,30.13,6,0,6,0.00
2013-7-16,94.7,75.7,63.9,70.7,65.9,62.7,97,76,37,30.26,30.14,5,0,5,0.00
2013-7-17,92.9,74.8,67.8,72.4,68.9,65.3,96,84,47,30.21,30.07,10,0,10,0.21
2013-7-18,92.7,73.9,65.0,75.0,68.2,64.4,98,85,46,30.12,29.97,7,0,2,0.01
2013-7-19,90.1,75.7,65.8,72.9,68.7,64.9,98,81,51,30.03,29.87,6,1,0,0.00
2013-7-20,88.4,73.6,66.1,74.5,69.4,65.2,98,88,55,29.94,29.81,2,0,7,0.01
2013-7-21,78.8,70.5,67.1,72.7,68.5,66.1,98,94,71,29.92,29.84,6,0,6,0.13
2013-7-22,82.6,71.6,65.2,72.3,67.8,64.3,98,89,64,29.89,29.72,9,0,9,0.09
2013-7-23,86.1,73.7,67.9,70.8,68.0,65.5,96,84,53,29.81,29.70,11,1,11,0.03
2013-7-24,87.6,74.6,68.3,70.8,67.5,63.2,98,80,46,29.80,29.69,6,0,6,0.00
2013-7-25,84.7,71.0,63.2,64.4,60.5,56.6,92,72,42,29.97,29.77,5,0,5,0.00
2013-7-26,89.0,70.5,57.6,67.3,61.4,56.2,95,75,43,30.00,29.89,6,0,6,0.02
2013-7-27,81.1,69.5,65.8,69.2,66.4,64.6,98,91,64,29.92,29.80,5,0,5,0.01
2013-7-28,82.4,70.0,62.4,66.5,62.1,56.8,98,79,42,29.98,29.80,3,0,9,0.01
2013-7-29,82.8,66.9,54.1,60.5,54.7,48.7,97,70,33,30.14,29.95,6,0,6,0.00
2013-7-30,81.6,66.1,55.0,64.1,58.6,53.9,97,79,44,30.17,30.07,4,0,4,0.00
2013-7-31,68.8,64.9,60.9,67.6,63.6,59.6,98,96,89,30.09,29.90,5,0,5,0.25
2013-8-1,85.5,72.1,66.1,68.4,66.0,62.7,98,83,50,29.90,29.82,5,0,5,0.03
2013-8-2,85.1,69.8,61.0,65.5,61.2,55.0,98,78,38,29.97,29.86,6,0,6,0.00
2013-8-3,83.6,71.2,61.0,68.4,64.5,58.7,97,81,54,29.96,29.88,6,0,6,0.00
2013-8-4,85.9,73.8,65.2,69.6,63.3,54.6,95,73,35,29.98,29.86,9,0,9,0.00
2013-8-5,87.0,70.2,58.9,63.2,60.2,54.5,97,74,37,29.99,29.88,6,0,6,0.00
2013-8-6,84.9,71.9,62.7,70.2,64.1,59.6,92,78,49,29.94,29.84,6,0,6,0.00
2013-8-7,80.1,71.4,67.8,73.0,68.6,66.4,97,91,72,29.93,29.87,5,0,5,0.16
2013-8-8,79.9,72.5,67.3,73.0,69.6,66.7,98,91,77,29.94,29.88,5,0,5,0.02
2013-8-9,87.6,75.2,67.4,75.2,70.0,65.9,96,85,61,29.98,29.87,9,0,9,0.05
2013-8-10,85.7,72.5,69.9,76.2,71.0,69.2,98,95,69,30.02,29.94,7,0,7,1.07
2013-8-11,85.1,72.5,67.3,73.3,69.4,66.7,99,91,61,30.07,29.95,5,0,5,0.09
2013-8-12,84.0,72.2,66.9,73.3,69.3,66.3,98,92,66,30.01,29.88,10,0,10,0.86
2013-8-13,77.6,69.8,65.3,73.1,68.4,63.7,99,95,78,29.89,29.76,6,0,6,0.82
2013-8-14,76.5,65.4,58.1,64.0,56.4,50.7,96,75,43,30.02,29.84,7,0,7,0.00
2013-8-15,59.0,56.1,54.8,53.3,51.4,50.1,87,84,78,30.04,29.98,3,0,3,0.00
2013-8-16,83.2,67.1,56.2,63.6,57.9,54.3,95,75,41,30.05,29.95,7,0,11,0.00
2013-8-17,73.3,65.7,58.0,63.6,58.9,54.9,94,80,57,30.09,30.01,5,0,6,0.00
2013-8-18,79.4,68.1,62.4,66.2,63.6,61.2,96,86,59,30.10,30.02,5,0,6,0.08
2013-8-19,80.1,69.2,64.0,68.9,65.8,63.1,98,90,61,30.08,29.97,6,0,6,0.09
2013-8-20,87.6,72.3,63.5,69.9,66.2,62.9,99,84,48,30.09,29.99,3,0,3,0.00
2013-8-21,83.2,71.1,64.7,71.5,67.2,63.6,98,88,62,30.13,30.03,3,0,3,0.00
2013-8-22,87.0,73.2,64.3,69.9,66.5,63.4,100,82,49,30.09,29.93,6,0,1,0.00
2013-8-23,83.8,71.2,64.5,70.6,66.9,63.6,98,87,58,30.01,29.91,5,0,0,0.00
2013-8-24,87.4,71.1,62.1,64.4,60.6,53.9,98,73,34,30.20,30.00,9,0,0,0.01
2013-8-25,84.0,66.8,54.8,61.7,55.3,46.0,96,71,29,30.30,30.18,6,0,0,0.00
2013-8-26,84.5,67.6,55.9,67.4,60.4,55.1,98,81,46,30.25,30.06,5,0,0,0.00
2013-8-27,82.8,71.1,62.9,70.6,65.8,61.7,97,84,60,30.07,29.94,6,0,0,0.00
2013-8-28,87.8,75.2,66.9,70.9,67.7,64.7,97,80,50,29.97,29.85,9,0,0,0.00
2013-8-29,91.2,78.1,69.9,70.8,68.4,65.1,92,74,46,29.90,29.82,7,0,0,0.00
2013-8-30,91.0,75.2,67.3,70.8,67.3,63.8,96,79,42,29.93,29.79,6,0,0,0.00
2013-8-31,86.3,73.8,68.1,72.8,69.4,64.0,95,87,58,29.87,29.77,7,0,0,0.00
2013-9-1,83.6,70.7,66.6,71.1,67.5,65.7,97,91,60,29.83,29.72,6,0,0,0.34
2013-9-2,84.5,72.9,67.1,70.5,68.3,65.9,98,87,60,29.85,29.74,6,0,0,0.00
2013-9-3,82.4,69.4,61.2,69.4,64.6,59.0,98,87,48,29.95,29.76,7,0,7,0.42
2013-9-4,85.5,66.3,57.0,64.1,59.2,54.0,99,82,37,30.07,29.94,5,0,0,0.01
2013-9-5,84.7,66.3,55.9,67.0,59.5,55.1,98,82,43,30.11,30.02,4,0,0,0.00
2013-9-6,85.7,67.8,56.9,66.4,60.1,56.1,98,80,39,30.13,29.99,5,0,0,0.00
2013-9-7,84.3,68.4,57.8,67.1,61.4,57.0,98,81,47,30.05,29.92,6,0,0,0.00
2013-9-8,87.4,70.5,61.8,68.4,64.1,60.9,98,83,46,29.94,29.86,4,0,0,0.00
2013-9-9,89.7,73.1,63.2,71.7,65.5,62.3,98,80,42,30.03,29.92,6,0,0,0.01
2013-9-10,90.5,74.0,63.7,70.7,66.1,62.5,97,80,41,30.15,30.02,6,0,0,0.00
2013-9-11,89.0,74.0,66.0,69.9,67.1,63.4,97,81,45,30.13,30.00,7,0,0,0.00
2013-9-12,83.6,69.6,64.8,72.9,67.0,63.6,98,92,65,30.00,29.79,9,0,9,1.06
2013-9-13,74.9,65.3,56.0,64.4,56.4,43.3,98,76,36,29.91,29.77,9,1,9,0.01
2013-9-14,77.7,58.7,48.6,55.9,48.4,40.4,95,73,28,30.05,29.91,10,0,10,0.00
2013-9-15,61.6,52.9,51.3,55.3,51.6,50.0,98,95,79,30.14,30.03,3,0,6,0.00
2013-9-16,74.4,63.6,56.3,63.4,59.0,55.2,98,86,66,30.12,30.03,4,0,1,0.00
2013-9-17,79.2,64.6,56.6,59.3,54.8,50.6,90,72,47,30.18,30.07,11,1,0,0.00
2013-9-18,65.0,59.9,55.9,60.9,56.3,52.1,98,88,74,30.16,30.09,6,0,0,0.22
2013-9-19,76.8,65.6,61.0,67.4,62.9,60.4,98,92,67,30.10,29.99,5,0,0,0.01
2013-9-20,82.4,67.6,59.2,68.3,62.9,58.6,99,87,55,30.01,29.80,5,0,0,0.01
2013-9-21,65.5,62.7,59.2,64.9,61.8,57.9,98,97,95,29.81,29.67,5,0,0,0.86
2013-9-22,74.0,58.9,50.1,57.9,53.5,49.4,99,85,45,29.90,29.73,5,0,0,0.01
2013-9-23,79.0,58.0,49.1,61.4,53.1,48.3,98,86,46,29.98,29.86,4,0,7,0.00
2013-9-24,80.3,63.3,53.5,61.2,56.4,52.7,98,82,44,30.01,29.82,7,0,7,0.00
2013-9-25,61.8,60.8,59.3,59.3,58.4,57.4,96,92,87,29.83,29.76,4,0,4,0.02
2013-9-26,77.2,63.5,58.3,60.5,58.3,54.3,98,85,48,29.98,29.81,3,0,3,0.03
2013-9-27,80.9,62.2,51.6,61.3,55.1,50.8,98,81,39,30.09,29.96,6,0,0,0.01
2013-9-28,78.3,61.5,52.2,58.7,54.8,51.1,97,81,42,30.17,30.04,5,0,0,0.00
2013-9-29,72.5,60.5,52.9,59.7,55.0,50.5,96,83,54,30.09,29.95,5,0,0,0.00
2013-9-30,74.2,61.7,55.1,60.6,57.2,53.7,98,86,54,30.02,29.91,4,0,0,0.00
2013-10-1,78.1,61.8,53.3,61.3,56.4,52.5,98,85,47,30.10,29.98,6,0,0,0.00
2013-10-2,82.4,63.1,53.8,63.6,57.9,53.2,98,86,45,30.13,30.00,5,0,0,0.00
2013-10-3,79.9,64.7,57.0,65.0,59.4,55.9,98,85,53,30.08,29.97,5,0,0,0.00
2013-10-4,63.7,59.2,57.6,62.6,58.4,57.0,98,97,96,30.12,30.01,4,0,0,0.01
2013-10-5,85.7,67.2,57.5,67.2,60.9,56.9,98,83,44,30.09,29.92,6,0,6,0.00
2013-10-6,83.0,67.9,58.3,63.6,59.7,56.7,98,78,42,29.93,29.73,12,0,12,0.00
2013-10-7,69.3,58.7,50.8,63.5,52.4,44.8,97,82,44,30.04,29.70,7,0,7,0.21
2013-10-8,71.6,56.5,47.0,51.1,45.4,41.3,88,69,37,30.12,30.01,7,1,7,0.00
2013-10-9,75.3,54.8,46.1,54.9,46.8,43.4,92,77,39,30.17,30.04,4,0,7,0.00
2013-10-10,72.3,54.8,42.3,54.7,47.6,40.9,96,79,43,30.11,29.98,5,0,5,0.00
2013-10-11,77.2,59.2,47.0,56.9,51.4,45.9,97,79,41,30.03,29.90,6,0,6,0.00
2013-10-12,73.0,62.1,56.7,61.6,57.1,53.5,97,84,59,30.04,29.90,5,0,5,0.03
2013-10-13,71.5,62.8,57.6,62.3,59.7,57.0,98,90,69,30.14,30.03,4,0,4,0.00
2013-10-14,75.1,64.0,58.0,61.0,58.0,55.6,96,82,55,30.17,30.02,6,0,6,0.00
2013-10-15,76.1,61.4,53.6,59.3,55.4,52.5,96,82,50,30.09,29.94,7,0,7,0.00
2013-10-16,65.8,60.4,55.4,59.1,56.7,53.7,95,88,74,29.98,29.89,5,0,5,0.00
2013-10-17,63.7,58.9,52.3,62.8,57.6,48.1,98,95,85,29.92,29.75,7,0,7,0.28
2013-10-18,62.6,48.9,42.1,49.4,44.7,41.3,99,87,49,30.02,29.91,4,0,7,0.00
2013-10-19,61.6,52.2,46.4,50.0,47.2,41.3,96,84,61,29.96,29.81,9,1,9,0.00
2013-10-20,63.4,45.4,35.0,41.6,36.4,29.7,97,75,30,30.06,29.95,7,0,7,0.00
2013-10-21,66.6,49.2,37.6,46.1,41.0,36.0,97,77,39,30.10,29.94,6,0,6,0.00
2013-10-22,62.6,53.4,46.0,49.7,47.3,43.4,94,81,59,29.95,29.75,7,0,7,0.00
2013-10-23,51.3,44.6,35.6,48.5,38.0,26.5,93,78,55,30.03,29.69,14,2,14,0.00
2013-10-24,48.2,39.4,30.0,37.0,32.6,28.2,94,78,52,30.18,30.03,9,1,9,0.02
2013-10-25,45.1,36.4,29.4,34.3,26.9,22.1,88,70,41,30.40,30.18,9,1,9,0.00
2013-10-26,53.2,35.6,25.4,29.7,26.1,23.7,94,74,32,30.34,30.07,4,1,10,0.00
2013-10-27,64.2,53.3,43.8,46.7,38.8,30.2,76,58,44,30.07,29.97,4,1,10,0.00
2013-10-28,62.6,55.4,51.4,55.2,50.4,46.0,97,84,66,30.17,30.03,5,0,5,0.03
2013-10-29,69.1,57.5,52.8,52.8,51.0,48.8,95,80,51,30.27,30.16,5,0,3,0.03
2013-10-30,74.4,59.7,53.6,56.7,53.3,48.7,97,81,49,30.20,30.05,10,0,0,0.03
2013-10-31,67.9,61.2,53.5,56.1,52.8,49.6,95,76,54,30.07,29.58,21,1,0,0.00
2013-11-1,70.3,62.1,52.9,60.7,52.5,43.4,96,73,41,29.71,29.55,13,1,0,0.62
2013-11-2,58.7,50.4,41.5,45.8,38.2,29.6,94,65,35,29.99,29.69,13,1,0,0.00
2013-11-3,52.9,42.6,34.0,37.8,33.4,30.6,95,72,45,30.30,29.99,7,0,0,0.00
2013-11-4,60.4,45.9,34.3,33.2,30.2,26.3,90,57,28,30.41,30.27,13,0,0,0.00
2013-11-5,63.5,49.5,41.9,34.7,29.5,25.6,64,48,25,30.43,30.29,7,0,0,0.00
2013-11-6,72.3,56.0,40.8,50.9,45.1,30.5,90,69,43,30.30,29.97,17,1,0,0.00
2013-11-7,59.5,49.8,37.0,54.5,41.8,28.2,97,75,46,30.20,29.91,14,1,0,0.25
2013-11-8,52.0,38.8,31.6,30.7,24.1,16.1,85,58,26,30.33,30.20,11,1,0,0.00
2013-11-9,53.3,39.5,29.0,31.8,27.1,23.5,85,64,32,30.30,30.18,12,0,0,0.00
2013-11-10,61.5,46.4,34.0,37.1,29.5,20.1,89,56,23,30.26,30.15,12,1,0,0.00
2013-11-11,63.1,42.9,29.0,30.2,24.5,19.4,82,53,20,30.29,30.10,6,0,0,0.00
2013-11-12,51.0,37.0,25.6,38.7,24.0,11.1,80,60,37,30.52,30.01,19,2,0,0.01
2013-11-13,40.2,26.9,19.4,19.5,16.2,14.4,84,65,35,30.62,30.45,6,0,9,0.00
2013-11-14,55.3,33.3,21.1,26.0,17.7,11.6,86,58,18,30.50,30.27,9,0,9,0.00
2013-11-15,50.4,39.4,29.0,45.9,30.4,17.1,97,73,34,30.31,30.12,4,0,7,0.16
2013-11-16,66.8,51.9,43.6,52.0,47.7,42.8,98,87,56,30.17,30.03,5,0,7,0.00
2013-11-17,67.4,56.6,47.6,60.8,53.2,46.6,98,89,59,30.05,29.72,9,0,9,0.23
2013-11-18,62.6,54.3,40.6,61.2,40.0,25.1,96,62,27,30.06,29.73,14,2,14,0.30
2013-11-19,48.2,39.1,29.3,29.1,24.9,20.3,84,58,35,30.21,30.05,11,1,11,0.00
2013-11-20,54.7,42.8,34.9,29.3,24.9,21.8,69,50,29,30.31,30.15,10,1,10,0.00
2013-11-21,66.0,49.3,37.6,49.1,39.2,27.7,93,69,48,30.37,30.21,10,1,10,0.00
2013-11-22,54.8,51.9,46.7,53.3,50.7,45.6,98,96,92,30.24,30.10,6,0,7,0.18
2013-11-23,52.5,43.3,28.7,51.4,33.8,14.7,96,70,36,30.31,30.10,13,2,13,0.01
2013-11-24,31.8,24.5,18.9,15.4,5.7,-0.5,59,45,25,30.56,30.31,11,1,11,0.00
2013-11-25,36.8,29.1,21.1,27.2,10.9,2.1,82,47,32,30.48,30.18,8,0,8,0.00
2013-11-26,45.1,39.9,32.4,44.3,38.8,27.2,98,96,81,30.18,29.65,12,1,12,2.14
2013-11-27,38.8,28.1,23.5,37.5,24.2,14.6,96,85,67,30.26,29.69,13,1,13,0.31
2013-11-28,36.6,24.7,15.7,25.2,18.0,12.3,89,77,53,30.47,30.25,6,0,7,0.00
2013-11-29,44.2,30.0,20.6,29.3,22.5,18.1,93,76,41,30.59,30.47,5,0,7,0.00
2013-11-30,51.6,36.6,29.8,33.4,25.1,20.5,88,65,37,30.50,30.28,7,0,7,0.00
2013-12-1,42.9,29.1,25.7,29.3,25.3,23.0,91,86,57,30.28,30.20,4,0,7,0.00
2013-12-2,49.1,43.3,39.3,39.8,37.2,32.2,90,79,67,29.95,29.76,3,0,1,0.00
2013-12-3,59.2,48.8,43.3,46.0,42.5,39.3,91,80,59,29.85,29.76,5,0,0,0.00
2013-12-4,68.6,54.6,45.2,50.6,47.1,43.0,94,78,50,29.93,29.81,6,0,0,0.00
2013-12-5,68.8,60.4,51.7,60.4,54.0,48.5,96,80,61,29.97,29.84,6,0,0,0.05
2013-12-6,62.7,51.7,38.3,61.5,50.6,36.4,98,96,93,30.10,29.79,27,1,0,0.89
2013-12-7,37.9,34.4,31.3,36.5,31.4,28.4,97,88,81,30.40,30.09,14,3,0,0.00
2013-12-8,43.3,38.7,32.5,41.4,36.7,29.6,97,93,85,30.33,30.02,7,1,0,0.32
2013-12-9,47.6,45.0,41.8,46.5,43.9,40.8,97,96,95,30.08,29.95,4,0,0,0.29
2013-12-10,46.8,37.7,23.9,45.7,33.1,18.9,96,84,58,30.34,29.86,11,1,0,0.03
2013-12-11,44.1,28.5,20.2,26.4,20.7,16.4,92,76,34,30.44,30.29,10,0,10,0.00
2013-12-12,34.9,28.6,24.4,20.8,17.0,8.5,74,63,35,30.46,30.33,9,1,9,0.00
2013-12-13,44.9,30.8,19.2,25.5,17.1,11.1,77,59,31,30.38,30.14,6,0,1,0.00
2013-12-14,46.2,40.8,36.6,45.6,34.2,18.0,98,79,43,30.16,29.69,10,1,0,0.56
2013-12-15,45.5,34.0,30.1,44.7,30.5,24.7,100,87,79,30.13,29.71,11,2,0,0.03
2013-12-16,45.4,35.0,28.5,33.0,28.4,25.6,91,78,53,30.20,30.04,10,1,0,0.00
2013-12-17,51.7,42.6,34.6,37.5,29.2,16.4,73,59,46,30.12,29.88,15,2,0,0.01
2013-12-18,43.1,32.1,26.0,21.2,19.3,16.3,77,60,35,30.28,30.12,10,1,0,0.00
2013-12-19,52.2,35.8,24.7,28.9,22.0,17.0,81,60,28,30.29,30.10,5,0,0,0.00
2013-12-20,58.7,44.8,33.5,38.2,30.1,23.2,78,58,33,30.15,30.00,5,0,0,0.00
2013-12-21,71.5,59.9,48.0,57.9,49.2,36.7,87,68,56,30.00,29.71,15,1,0,0.00
2013-12-22,69.6,57.7,52.8,59.3,54.4,52.0,97,90,65,29.98,29.71,21,1,0,1.29
2013-12-23,53.9,43.5,32.1,53.1,40.7,25.5,97,90,76,30.26,29.93,11,1,0,0.19
2013-12-24,32.1,28.5,20.3,26.0,18.3,10.1,78,66,47,30.45,30.25,11,2,0,0.00
2013-12-25,41.2,26.5,17.5,22.7,15.1,8.2,81,63,38,30.45,30.28,6,0,0,0.00
2013-12-26,44.2,31.4,24.2,25.8,22.0,18.9,84,70,41,30.36,30.25,11,1,0,0.00
2013-12-27,48.3,31.8,23.9,28.3,22.1,19.3,88,69,36,30.46,30.32,7,0,0,0.00
2013-12-28,43.3,34.1,24.8,39.2,26.4,19.8,96,74,51,30.39,29.99,3,0,0,0.32
2013-12-29,44.2,42.6,40.2,43.1,41.3,38.0,97,95,92,30.00,29.74,10,1,0,0.85
2013-12-30,40.5,37.2,32.9,38.8,33.0,28.8,95,85,75,30.16,29.94,10,1,0,0.00
2013-12-31,40.1,31.1,25.3,29.1,24.4,19.6,91,78,46,30.37,30.14,11,1,0,0.00
2014-1-1,49.4,31.4,22.9,30.8,23.7,20.4,91,75,37,30.34,30.06,7,0,0,0.00
2014-1-2,37.5,31.2,16.9,36.0,28.2,8.2,96,89,67,30.06,29.68,15,2,0,0.20